ONEWEB-0497, 54116

Orbit data source: Space-Track

ONEWEB-0497, 54116 is a payload satellite owned by One Web (NAA) (UK) in LEO that was launched on Sat, 22 Oct 2022 UTC via a LVM3 launch vehicle from the Sirharikota (SRI). Payload-class satellites include a variety of spacecraft equipped with specific instruments for various scientific and technological missions. These include communications satellites like Starlink; space stations such as the ISS; scientific satellites like the Hubble; Earth observation satellites from companies like Planet Labs, Umbra, and HawkEye 360; GPS; miniature CubeSats for education and research; and military/defense satellites.

Loading next visibility...
Identifier
54116, 2022-138D
Orbit
LEO
Country
Flag of UKUK
Related business
Manufacturer
One Web
Mission
Operational Commercial Communications
Bus & Motor
ARROW, Unknown motor
Mass
148 kg wet, ~140 kg dry
Launch date (UTC)
2022-10-22 (4 years ago)
Launch vehicle
LVM3
Launch site
Sirharikota (SRI)
Object type
Payload
Rocket body
Debris
Shape & HBR
Trap Box + 2 Pan, 6.7 m
Radar Cross Section
3.464 m², Large (>1 m²)

Expand to show TLE details & history
Last TLE update: 2 days ago

TLE from 2 days ago
0 ONEWEB-0497
1 54116U 22138D   26171.33468825  .00000067  00000-0  13395-3 0  9996
2 54116  87.9180 304.3356 0001822 101.4722 258.6615 13.19724613177225
Epoch: 2026-06-20T08:01Z
TLE epoch observation values (Epoch: 2026-06-20T08:01:57.064Z)
Latitude
-0.00008°
Longitude
-84.70297°
Altitude
1,188.945 km
Speed
7.259 km/s
True Right ascension
20h 17m 20s
True Declination
0° 00' 00"
Sunlit
Object was in full shadow at epoch
Visualization orbit readout
Latitude
Unknown
Longitude
Unknown
Altitude
Unknown
Speed
Unknown
Apparent Right ascension
Unknown
Apparent Declination
Unknown
Sunlit
N/A
Visualization observer readout
Local Sidereal Time
21:31:24
Azimuth
Unknown
Elevation
Unknown
Doppler factor
Unknown
Orbital elements
Apogee altitude
1,184.255 km
Perigee altitude
1,181.5 km
Semi-major axis
7,561.015 km
Eccentricity
0.00018
Inclination
87.918°
RAAN
304.3356°
Arg. of periapsis
101.4722°
True anomaly
258.64103°
Mean anomaly
258.6615°
Eccentric anomaly
258.65126°
Mean motion
3.30121 °/min
Orbital period
109.05 mins
BSTAR
0.00013395
Loading maneuver chart data...
Computing Atmospheric mass density...
Loading historical data...
Loading historical data...
Loading historical data...
Loading historical data...
Loading historical data...
Loading historical data...
Loading historical data...

Documentation

Showing up to 5 results
|